Location: Wapato
(46.4478°N, 120.4212°W)
Time: 10:12:33
(UTC+00:00)

Injun/Solrad 3 - Pass Details

Date: 15 May 2026
Orbit: 867 x 989 km, 66.8° (Epoch: 10 June)

Event Time Altitude Azimuth Distance (km) Brightness Sun altitude
Rises 22:24:41 0° 176° (S) 3,500 11.1 49.4°
Reaches altitude 10° 22:27:28 10° 165° (SSE) 2,583 10.5 49.0°
Maximum altitude 22:32:27 28° 108° (ESE) 1,662 9.3 48.2°
Drops below altitude 10° 22:37:36 10° 52° (NE) 2,670 10.0 47.4°
Sets 22:40:31 0° 41° (NE) 3,640 10.6 47.0°
